Pompano Beach, FL

9:04 AM EDT on March 28, 2017 (GMT -0400)
Pompano Beach

Weather History for KPMP - February, 2014

Change the Weather History Date:

Wednesday, February 12, 2014

  Actual Average Record
Temperature  
Mean Temperature 73 °F -  
Max Temperature 82 °F 77 °F 86 °F (1982)
Min Temperature 64 °F 57 °F 37 °F (1955)
Cooling Degree Days 8    
Growing Degree Days 23 (Base 50)    
Moisture  
Dew Point 65 °F    
Average Humidity 80    
Maximum Humidity 94    
Minimum Humidity 58    
Precipitation  
Precipitation 0.62 in - - ()
Sea Level Pressure  
Sea Level Pressure 29.93 in    
Wind  
Wind Speed 8 mph (SSW)    
Max Wind Speed 24 mph    
Max Gust Speed 34 mph    
Visibility 8 miles    
Events Rain , Thunderstorm    
Averages and records for this station are not official NWS values.
T = Trace of Precipitation, MM = Missing Value Source: NWS Daily Summary

Daily Weather History Graph

Daily Weather History Graph

Search for Another Location

Airport or City:

Trip Planner

Search our weather history database for the weather conditions in past years. The results will help you decide how hot, cold, wet, or windy it might be!

Date:

Astronomy

Feb. 12, 2014 Rise Set
Actual Time 6:58 AM EST 6:11 PM EST
Civil Twilight 6:34 AM EST 6:35 PM EST
Nautical Twilight 6:07 AM EST 7:02 PM EST
Astronomical Twilight 5:40 AM EST 7:29 PM EST
Moon 4:27 PM EST (2/12) 5:08 AM EST (2/12)
Length of Visible Light 12h 00m
Length of Day
11h 13m
Waxing Gibbous, 95% of the Moon is Illuminated
Feb 12
Waxing Gibbous
Feb 14
Full
Feb 22
Last Quarter
Mar 1
New
Mar 8
First Quarter

Hourly Weather History & Observations

Time (EST) Temp. Heat Index Dew Point Humidity Pressure Visibility Wind Dir Wind Speed Gust Speed Precip Events Conditions
12:53 AM 70.0 °F - 62.1 °F 76% 30.04 in 10.0 mi West 5.8 mph - N/A   Clear
1:53 AM 68.0 °F - 60.1 °F 76% 30.02 in 10.0 mi NW 3.5 mph - N/A   Partly Cloudy
2:53 AM 68.0 °F - 60.1 °F 76% 30.01 in 10.0 mi Calm Calm - N/A   Scattered Clouds
3:53 AM 66.9 °F - 60.1 °F 79% 30.00 in 10.0 mi Calm Calm - N/A   Scattered Clouds
4:53 AM 64.9 °F - 61.0 °F 87% 29.99 in 10.0 mi Calm Calm - N/A   Clear
5:53 AM 64.0 °F - 60.1 °F 87% 30.00 in 10.0 mi Calm Calm - N/A   Clear
6:53 AM 64.0 °F - 60.1 °F 87% 30.00 in 10.0 mi Calm Calm - N/A   Clear
7:53 AM 66.9 °F - 61.0 °F 81% 30.02 in 9.0 mi Calm Calm - N/A   Partly Cloudy
8:53 AM 75.0 °F - 66.0 °F 73% 30.03 in 10.0 mi Calm Calm - N/A   Scattered Clouds
9:53 AM 81.0 °F 83.0 °F 66.0 °F 60% 30.03 in 10.0 mi SSE 15.0 mph - N/A   Partly Cloudy
10:53 AM 82.0 °F 84.1 °F 66.0 °F 58% 30.01 in 10.0 mi SE 18.4 mph - N/A   Partly Cloudy
11:53 AM 82.9 °F 85.4 °F 66.9 °F 58% 29.98 in 10.0 mi SE 15.0 mph 23.0 mph N/A   Clear
12:53 PM 82.9 °F 85.8 °F 68.0 °F 60% 29.94 in 10.0 mi SE 19.6 mph 25.3 mph N/A   Partly Cloudy
1:53 PM 82.9 °F 85.8 °F 68.0 °F 60% 29.90 in 10.0 mi SSE 19.6 mph 26.5 mph N/A   Clear
2:53 PM 81.0 °F 83.8 °F 68.0 °F 65% 29.88 in 10.0 mi SSE 18.4 mph 24.2 mph N/A   Partly Cloudy
3:53 PM 81.0 °F 83.8 °F 68.0 °F 65% 29.85 in 10.0 mi SSE 16.1 mph - N/A   Scattered Clouds
4:53 PM 79.0 °F - 69.1 °F 72% 29.86 in 10.0 mi SSE 15.0 mph - N/A   Mostly Cloudy
5:53 PM 75.0 °F - 70.0 °F 84% 29.86 in 10.0 mi South 13.8 mph 28.8 mph 0.03 in Rain Light Rain
6:53 PM 75.0 °F - 69.1 °F 82% 29.84 in 10.0 mi South 13.8 mph 20.7 mph 0.01 in   Partly Cloudy
7:53 PM 75.0 °F - 70.0 °F 84% 29.86 in 10.0 mi South 9.2 mph - N/A   Scattered Clouds
8:53 PM 75.0 °F - 66.9 °F 76% 29.86 in 10.0 mi South 4.6 mph - N/A   Clear
9:53 PM 73.9 °F - 68.0 °F 82% 29.86 in 10.0 mi SSW 3.5 mph - 0.00 in   Scattered Clouds
10:16 PM 73.4 °F - 69.8 °F 88% 29.85 in 10.0 mi South 11.5 mph 19.6 mph 0.00 in Rain , Thunderstorm Light Rain
10:24 PM 69.8 °F - 64.4 °F 83% 29.90 in 1.8 mi NW 17.3 mph 34.5 mph 0.11 in Rain , Thunderstorm Heavy Rain
10:27 PM 66.2 °F - 62.6 °F 88% 29.90 in 1.5 mi NW 11.5 mph 34.5 mph 0.12 in Rain , Thunderstorm Heavy Thunderstorms and Rain
10:34 PM 66.2 °F - 62.6 °F 88% 29.90 in 3.0 mi WNW 11.5 mph 16.1 mph 0.14 in Rain , Thunderstorm Thunderstorms and Rain
10:42 PM 66.2 °F - 62.6 °F 88% 29.91 in 2.0 mi West 23.0 mph 31.1 mph 0.20 in Rain Rain
10:45 PM 66.2 °F - 62.6 °F 88% 29.91 in 1.2 mi West 24.2 mph 33.4 mph 0.26 in Rain Heavy Rain
10:48 PM 64.4 °F - 62.6 °F 94% 29.91 in 1.0 mi West 18.4 mph 33.4 mph 0.31 in Rain , Thunderstorm Heavy Rain
10:53 PM 64.9 °F - 63.0 °F 93% 29.91 in 1.0 mi WSW 16.1 mph 31.1 mph 0.37 in Rain , Thunderstorm Heavy Thunderstorms and Rain
10:59 PM 64.4 °F - 62.6 °F 94% 29.89 in 2.0 mi WSW 15.0 mph 23.0 mph 0.03 in Rain , Thunderstorm Thunderstorms and Rain
11:18 PM 64.4 °F - 62.6 °F 94% 29.87 in 4.0 mi SSW 6.9 mph - 0.11 in Rain Rain
11:40 PM 64.4 °F - 62.6 °F 94% 29.87 in 2.5 mi SSW 10.4 mph - 0.17 in Rain , Thunderstorm Rain
11:53 PM 64.9 °F - 63.0 °F 93% 29.88 in 5.0 mi SW 9.2 mph - 0.21 in Rain , Thunderstorm Light Rain